Regional Weather Roundup
Issued by NWS Albany, NY

Current Version | Previous Version | Graphics & Text | Print | Product List | Glossary Off
Versions: 1 2 3 4 5 6 7 8 9 10 11 12 13 14 15 16 17 18 19 20 21 22 23 24 25 26 27 28 29 30 31 32 33 34 35 36 37 38 39 40 41 42 43 44 45

000
ASUS41 KALY 272110
RWRALY

NEW YORK STATE HOURLY WEATHER ROUNDUP
NATIONAL WEATHER SERVICE ALBANY NY
400 PM EST SAT DEC 27 2014

NOTE: "FAIR" INDICATES FEW OR NO CLOUDS BELOW 12,000 FEET WITH NO
SIGNIFICANT WEATHER AND/OR NO OBSTRUCTIONS TO VISIBILITY.

NYZ032-033-038>043-046>054-057>066-NYZ062>081-272200-
EAST


CITY           SKY/WX    TMP DP  RH WIND       PRES   REMARKS
ALBANY         PTCLDY    49  33  54 S8        30.10F
GLENS FALLS    PTCLDY    43  33  68 CALM      30.10F
POUGHKEEPSIE   PTCLDY    52  34  50 SW5       30.14F
NEWBURGH       PTCLDY    50  37  62 CALM      30.15F
MONTGOMERY     CLEAR     50  35  56 S6        30.13F
WHITE PLAINS   CLEAR     51  33  50 W3        30.15R
ISLIP          MOCLDY    48  33  56 SW6       30.16S
NEW YORK CITY  MOCLDY    53  32  44 SW8       30.17R
CENTRAL PARK   CLEAR     54  32  43 SW5       30.19R
$$

NYZ005>009-017-018-044>046-055-056-272200-
CENTRAL


CITY           SKY/WX    TMP DP  RH WIND       PRES   REMARKS
FULTON         CLOUDY    53  37  54 S8        30.02F
SYRACUSE       CLOUDY    54  37  52 SW10      30.02F
ROME           CLOUDY    49  37  63 SE7       30.06F
ELMIRA         CLOUDY    53  38  56 SW9       30.06F
BINGHAMTON     CLOUDY    47  34  60 S8        30.07F
MONTICELLO     CLEAR     46  34  61 SW6       30.14R
$$

NYZ026>034-041>043-272200-
NORTH


CITY           SKY/WX    TMP DP  RH WIND       PRES   REMARKS
WATERTOWN      CLOUDY    51  35  54 S5        30.00F
FORT DRUM      NOT AVBL
MASSENA        CLOUDY    42  34  73 E3        30.02F
SARANAC LAKE   CLOUDY    39  33  79 SW10      30.00S WCI  32
PLATTSBURGH    CLOUDY    42  34  73 S9        30.04F
$$

NYZ001>004-010>016-019>021-272200-
WEST


CITY           SKY/WX    TMP DP  RH WIND       PRES   REMARKS
NIAGARA FALLS  MOCLDY    52  40  63 S16G23    29.93F
BUFFALO        MOCLDY    53  40  61 S14       29.95F
DUNKIRK        CLOUDY    54  40  59 S16G25    29.96F
JAMESTOWN      CLEAR     50  36  57 S13       29.99F
WELLSVILLE     CLEAR     47  36  65 S8        30.03F
ROCHESTER      PTCLDY    54  39  57 S17G23    29.98F
PENN YAN       PTCLDY    52  38  58 S10G21    30.03F
$$

             KEY
       WCI = WIND CHILL INDEX
       VSB = VISIBILITY
       HX  = HEAT INDEX
$$


USA.gov is the U.S. government's official web portal to all federal, state and local government web resources and services.